Location: Poprad
(49.0500°N, 20.3000°E)
Time: 23:22:08
(UTC+02:00)

AO-85 - Visible Passes

Search period start: 24 April 2024 00:00
Search period end: 04 May 2024 00:00
Orbit: 516 x 753 km, 64.8° (Epoch: 04 January)

Date Brightness Start Highest point End Pass type
(mag) Time Alt. Az. Time Alt. Az. Time Alt. Az.
24 Apr ? 00:17:06 52° NNW 00:17:06 52° NNW 00:21:06 10° NE visible
24 Apr ? 01:54:27 10° WNW 01:57:31 18° NNW 02:00:43 10° NNE visible
24 Apr ? 03:37:32 10° NNW 03:39:26 12° N 03:41:23 10° NNE visible
24 Apr ? 22:57:25 26° ENE 22:57:25 26° ENE 22:59:42 10° NE visible
25 Apr ? 00:34:34 31° WNW 00:35:29 34° NW 00:39:47 10° NNE visible
25 Apr ? 02:14:27 10° NW 02:16:55 14° NNW 02:19:27 10° NNE visible
25 Apr ? 03:56:37 10° NNW 03:58:55 13° N 04:01:17 10° NE visible
25 Apr ? 23:14:43 63° NE 23:14:43 63° NE 23:18:39 10° NE visible
26 Apr ? 00:51:53 14° WNW 00:54:39 23° NNW 00:58:26 10° NNE visible
26 Apr ? 02:34:23 10° NNW 02:36:22 12° N 02:38:24 10° NNE visible
26 Apr ? 04:15:22 10° NNW 04:18:21 16° NNE 04:21:25 10° ENE visible
26 Apr ? 21:54:40 20° E 21:54:40 20° E 21:56:48 10° ENE visible
26 Apr ? 23:31:47 42° W 23:32:51 53° NW 23:37:25 10° NNE visible
27 Apr ? 01:10:55 10° WNW 01:13:55 17° NNW 01:17:03 10° NNE visible
27 Apr ? 02:53:55 10° NNW 02:55:52 12° N 02:57:51 10° NNE visible
27 Apr ? 04:33:59 10° NNW 04:37:40 21° NNE 04:41:29 10° ENE visible
27 Apr ? 22:11:19 46° SE 22:11:39 47° ESE 22:16:04 10° NE visible
27 Apr ? 23:48:25 13° W 23:51:51 32° NW 23:56:05 10° NNE visible
28 Apr ? 01:30:54 10° NW 01:33:18 14° NNW 01:35:47 10° NNE visible
28 Apr ? 03:12:55 10° NNW 03:15:20 14° NNE 03:17:48 10° NE visible
28 Apr ? 20:50:08 12° ESE 20:51:07 13° ESE 20:53:11 10° E visible
28 Apr ? 22:27:09 18° SW 22:30:18 90° WSW 22:34:58 10° NE visible
29 Apr ? 00:07:28 10° W 00:11:00 22° NNW 00:14:42 10° NNE visible
29 Apr ? 01:50:47 10° NNW 01:52:45 12° N 01:54:46 10° NNE visible
29 Apr ? 03:31:37 10° NNW 03:34:43 16° NNE 03:37:53 10° ENE visible
29 Apr ? 21:05:52 10° S 21:09:25 26° ESE 21:13:11 10° ENE visible
29 Apr ? 22:44:54 10° WSW 22:49:09 50° NW 22:53:42 10° NNE visible
30 Apr ? 00:27:19 10° WNW 00:30:16 17° NNW 00:33:20 10° NNE visible
30 Apr ? 02:10:14 10° NNW 02:12:13 12° N 02:14:16 10° NNE visible
30 Apr ? 03:50:13 10° NNW 03:54:00 22° NNE 03:57:55 10° E visible
30 Apr ? 21:23:45 10° SSW 21:27:53 51° ESE 21:32:21 10° NE visible
30 Apr ? 23:04:12 10° W 23:08:09 31° NW 23:12:20 10° NNE visible
01 May ? 00:47:18 10° NW 00:49:38 14° NNW 00:52:03 10° NNE visible
01 May ? 02:29:10 10° NNW 02:31:40 14° NNE 02:34:13 10° NE visible
01 May ? 04:08:47 10° NNW 04:13:10 31° NE 04:17:41 10° E visible
01 May ? 21:42:13 10° SW 21:46:32 84° NW 21:51:13 10° NE visible
01 May ? 23:23:49 10° WNW 23:27:17 21° NNW 23:30:56 10° NNE visible
02 May ? 01:07:07 10° NNW 01:09:04 12° N 01:11:05 10° NNE visible
02 May ? 02:47:50 10° NNW 02:51:02 17° NNE 02:54:18 10° ENE visible
02 May ? 04:27:22 10° NNW 04:32:11 48° NE 04:37:07 10° ESE visible
02 May ? 22:01:09 10° WSW 22:05:22 47° NW 22:09:55 10° NNE visible
02 May ? 23:43:40 10° WNW 23:46:33 16° NNW 23:49:33 10° NNE visible
03 May ? 01:26:27 10° NNW 01:28:31 12° N 01:30:37 10° NNE visible
03 May ? 03:06:24 10° NNW 03:10:17 23° NNE 03:14:16 10° E visible
03 May ? 20:39:52 10° SSW 20:44:03 55° ESE 20:48:35 10° NE visible
03 May ? 22:20:28 10° W 22:24:22 29° NW 22:28:31 10° NNE visible
